Goldsboro, NC

12:31 AM EDT on June 20, 2018 (GMT -0400)
Seymour Johnson Air Force Base

Weather History for KGSB - January, 2014

Change the Weather History Date:

Wednesday, January 1, 2014

  Actual Average Record
Temperature  
Mean Temperature 42 °F -  
Max Temperature 50 °F 53 °F 68 °F (2000)
Min Temperature 33 °F 34 °F 17 °F (2018)
Degree Days  
Heating Degree Days 24    
Moisture  
Dew Point 34 °F    
Average Humidity 72    
Maximum Humidity 97    
Minimum Humidity 38    
Precipitation  
Precipitation 0.00 in - - ()
Sea Level Pressure  
Sea Level Pressure 30.30 in    
Wind  
Wind Speed 1 mph (ESE)    
Max Wind Speed 6 mph    
Max Gust Speed -    
Visibility 10 miles    
Events      
Averages and records for this station are not official NWS values.
T = Trace of Precipitation, MM = Missing Value Source: NWS Daily Summary

Daily Weather History Graph

Daily Weather History Graph

Search for Another Location

Airport or City:

Astronomy

Jan. 01, 2014 Rise Set
Actual Time 7:20 AM EST 5:10 PM EST
Civil Twilight 6:52 AM EST 5:38 PM EST
Nautical Twilight 6:20 AM EST 6:10 PM EST
Astronomical Twilight 5:49 AM EST 6:41 PM EST
Moon 7:11 AM EST (1/1) 5:50 PM EST (1/1)
Length of Visible Light 10h 45m
Length of Day
9h 49m
New Moon, 0% of the Moon is Illuminated
Jan 1
New Moon
Jan 7
First Quarter
Jan 15
Full
Jan 24
Last Quarter
Jan 30
New

Hourly Weather History & Observations

Time (EST) Temp. Windchill Dew Point Humidity Pressure Visibility Wind Dir Wind Speed Gust Speed Precip Events Conditions
12:58 AM 36.0 °F - 31.8 °F 85% 30.36 in 10.0 mi Calm Calm - N/A   Clear
1:58 AM 34.3 °F - 31.5 °F 89% 30.38 in 10.0 mi Calm Calm - N/A   Clear
2:58 AM 34.0 °F - 31.8 °F 92% 30.38 in 10.0 mi Calm Calm - N/A   Clear
3:58 AM 34.2 °F - 32.2 °F 92% 30.38 in 10.0 mi Calm Calm - N/A   Clear
4:58 AM 34.0 °F - 32.2 °F 93% 30.38 in 10.0 mi Calm Calm - N/A   Clear
5:58 AM 33.1 °F - 32.4 °F 97% 30.38 in 10.0 mi East 2.3 mph - N/A   Clear
6:58 AM 33.4 °F - 32.7 °F 97% 30.40 in 10.0 mi NNE 1.2 mph - N/A   Clear
7:58 AM 34.3 °F - 33.6 °F 97% 30.40 in 10.0 mi Calm Calm - N/A   Clear
8:58 AM 36.7 °F - 36.0 °F 97% 30.43 in 10.0 mi Calm Calm - N/A   Clear
9:58 AM 41.0 °F 39.0 °F 33.4 °F 74% 30.43 in 10.0 mi East 3.5 mph - N/A   Clear
10:58 AM 46.2 °F 43.3 °F 27.9 °F 49% 30.41 in 10.0 mi East 5.8 mph - N/A   Clear
11:58 AM 49.6 °F - 25.0 °F 38% 30.36 in 10.0 mi SE 5.8 mph - N/A   Clear
12:58 PM 49.8 °F - 26.1 °F 40% 30.33 in 10.0 mi South 4.6 mph - N/A   Partly Cloudy
1:58 PM 50.5 °F - 26.6 °F 39% 30.32 in 10.0 mi SSW 3.5 mph - N/A   Clear
2:58 PM 50.7 °F - 27.3 °F 40% 30.29 in 10.0 mi Variable 1.2 mph - N/A   Clear
3:58 PM 50.5 °F - 30.0 °F 45% 30.29 in 10.0 mi East 1.2 mph - N/A   Scattered Clouds
4:58 PM 48.7 °F - 34.9 °F 59% 30.26 in 10.0 mi Calm Calm - N/A   Overcast
5:58 PM 47.8 °F - 36.7 °F 65% 30.25 in 10.0 mi ENE 2.3 mph - N/A   Overcast
6:58 PM 48.0 °F - 36.0 °F 63% 30.25 in 10.0 mi Calm Calm - N/A   Overcast
7:34 PM 48.2 °F - 39.2 °F 71% 30.23 in 10.0 mi Calm Calm - N/A   Overcast
7:52 PM 46.4 °F - 37.4 °F 71% 30.24 in 10.0 mi SSW 2.3 mph - N/A   Overcast
7:58 PM 47.1 °F - 36.9 °F 68% 30.25 in 10.0 mi Calm Calm - N/A   Overcast
8:58 PM 47.3 °F - 41.2 °F 79% 30.23 in 10.0 mi ENE 1.2 mph - N/A   Overcast
9:28 PM 46.4 °F 44.3 °F 41.0 °F 81% 30.20 in 10.0 mi East 4.6 mph - N/A   Overcast
9:58 PM 47.1 °F - 39.2 °F 74% 30.21 in 10.0 mi Calm Calm - N/A   Overcast
10:07 PM 46.4 °F - 39.2 °F 76% 30.19 in 10.0 mi ENE 1.2 mph - N/A   Overcast
10:19 PM 48.2 °F - 39.2 °F 71% 30.18 in 10.0 mi Calm Calm - N/A   Overcast
10:28 PM 48.2 °F - 39.2 °F 71% 30.17 in 10.0 mi SE 2.3 mph - N/A   Overcast
10:58 PM 47.3 °F - 38.7 °F 72% 30.18 in 10.0 mi Calm Calm - N/A   Overcast
11:58 PM 47.1 °F - 39.4 °F 74% 30.15 in 10.0 mi ESE 2.3 mph - N/A   Overcast